Wind_Speed
14 12 9 14 11 2 15 15 12 9 8 8 7 6 13 8 13 9 18 16 14 16 16 16 15 13 12 12 11 10 10 10 9 9 10 10 8 7 6 7 9 7 8 10 10 10 11 10 11
19 13 15 5 10 13 10 10 10 9 8 7 8 6 8 10 9 18 18 18 16 16 16 15 15 13 12 12 11 10 10 10 9 10 10 9 9 8 7 7 8 7 7 7 9 9 9 10 10
16 17 9 2 8 12 7 11 13 9 8 5 6 5 5 6 12 14 17 19 16 16 16 14 13 13 12 11 11 10 10 10 10 10 9 9 9 9 8 9 8 7 7 7 6 7 7 6 7
6 4 5 6 13 11 9 10 6 8 8 4 2 5 3 7 13 10 16 19 16 15 14 12 13 14 13 13 12 12 11 12 11 11 10 9 9 8 9 9 8 7 7 7 6 6 6 5 5
14 10 19 15 14 7 6 7 6 5 6 5 3 8 4 8 13 16 17 17 16 14 12 12 13 14 14 13 13 12 12 11 11 11 11 9 8 8 8 7 6 6 6 6 6 6 5 5 4
8 11 7 12 10 4 8 4 4 9 6 6 5 3 3 10 18 19 19 18 18 14 12 13 13 14 14 13 12 11 10 10 9 8 8 7 6 6 5 5 5 4 4 5 5 5 4 4 4
12 8 6 9 9 8 5 5 10 10 7 6 6 1 3 17 19 20 20 18 18 13 13 13 13 12 12 11 11 10 9 8 6 6 6 5 2 2 2 2 3 3 3 5 5 6 6 5 5
8 13 5 10 9 5 5 4 7 9 4 7 6 2 7 16 21 20 19 18 18 14 12 13 13 12 12 10 9 8 7 6 4 3 3 2 1 2 4 5 4 4 5 6 6 7 7 7 7
8 10 14 12 13 10 3 3 5 5 5 3 5 4 8 7 20 20 19 18 17 17 13 13 9 11 9 8 7 6 4 4 2 1 2 3 5 7 8 8 7 8 9 10 10 10 9 10 10
7 9 11 8 7 5 5 3 6 1 3 2 4 4 5 9 18 21 20 18 17 16 14 12 13 9 9 7 5 3 2 2 2 2 4 8 8 9 9 9 8 10 14 14 14 13 12 12 12
5 7 7 8 5 4 4 2 4 4 6 3 4 4 6 15 19 19 18 17 15 13 13 11 10 12 8 6 4 4 3 6 4 5 6 7 7 7 5 5 7 8 10 10 17 18 16 14 16
3 3 5 4 6 4 3 3 2 3 3 1 7 3 8 20 19 19 18 17 16 13 12 10 9 8 8 7 5 5 5 9 8 5 5 6 5 5 5 6 8 8 7 9 13 15 19 17 21
1 5 5 4 3 2 1 3 2 1 2 4 9 6 15 20 19 19 17 16 15 14 12 12 10 8 6 5 5 2 4 4 7 6 4 11 10 8 8 8 9 9 7 8 10 14 14 18 20
5 4 3 3 2 2 1 3 5 2 3 7 11 13 15 19 19 19 18 17 15 13 12 12 8 7 6 6 3 2 2 2 2 2 6 6 8 11 11 10 9 10 10 8 10 11 12 12 14
3 2 3 1 1 2 3 3 1 1 3 9 11 13 15 17 19 18 17 17 14 13 12 12 9 7 6 4 2 1 1 1 6 6 7 9 10 12 12 15 14 12 10 8 9 10 11 11 15
2 5 2 3 2 3 3 5 3 5 5 7 10 13 14 15 18 17 17 16 14 13 14 11 10 7 4 3 3 4 4 4 5 8 9 10 11 17 16 17 16 14 12 9 7 8 10 12 12
10 2 5 4 2 3 1 3 2 7 5 5 10 13 14 15 18 17 16 18 14 15 13 12 11 8 5 1 1 2 3 4 6 8 11 12 11 16 18 12 13 13 13 12 9 9 9 11 12
10 4 3 3 1 4 5 5 4 8 8 6 7 12 15 15 16 15 15 14 16 15 15 15 12 9 6 5 4 5 7 7 10 11 12 14 16 17 15 9 11 8 10 9 8 9 11 11 13
6 7 3 2 2 2 6 6 6 9 11 10 9 10 13 16 16 16 16 16 13 15 14 15 14 11 9 6 6 7 8 10 12 15 17 19 18 12 14 9 8 9 9 6 6 6 9 11 13
8 3 5 1 6 7 5 7 8 12 13 14 12 12 11 12 16 17 17 16 15 15 19 17 15 14 12 10 10 10 12 13 13 12 16 19 21 19 14 14 17 12 10 10 10 10 10 11 13
11 8 5 7 10 11 9 14 12 14 15 15 15 13 12 12 13 16 19 17 17 19 17 16 15 15 13 11 11 11 12 12 14 15 16 20 18 20 17 14 14 13 12 11 11 13 15 16 19
10 7 8 12 12 8 10 12 2 11 15 16 15 16 15 15 15 15 15 18 19 20 18 15 16 16 13 11 9 9 10 14 21 23 28 26 25 19 19 16 13 14 13 11 14 14 15 17 17
13 9 10 12 16 19 7 4 8 8 10 11 13 16 17 17 16 18 15 15 17 18 18 16 15 14 13 11 12 10 11 16 22 24 28 26 30 24 13 14 12 11 15 12 16 14 15 18 18
14 12 14 14 16 6 11 21 15 13 6 4 5 11 16 19 20 19 18 19 17 18 18 19 16 13 12 12 13 14 16 20 20 22 21 27 21 5 9 14 12 16 16 13 15 22 21 19 19
14 15 19 8 5 6 10 17 12 7 7 6 4 9 12 17 21 22 21 21 20 20 20 20 14 13 14 16 16 17 20 20 20 17 19 19 8 3 7 14 15 18 19 22 23 21 18 18 18
17 20 23 10 6 9 10 6 1 3 3 8 4 6 8 14 17 20 23 22 23 21 22 17 13 15 16 18 19 21 21 19 16 14 14 12 7 8 9 12 14 15 15 16 17 16 14 14 16
21 22 20 21 22 13 11 12 10 5 5 5 3 5 6 10 14 19 20 21 21 23 22 17 16 19 21 21 23 20 15 13 12 11 11 11 13 14 15 16 14 14 14 16 16 15 15 16 16
27 14 17 18 14 11 7 15 8 10 4 6 2 2 6 9 9 15 18 21 23 22 22 21 17 18 23 24 18 13 10 9 8 9 8 8 11 13 13 13 13 14 15 15 16 16 16 16 15
22 21 18 15 13 10 6 4 6 2 5 3 2 4 8 8 11 10 14 16 17 18 20 19 21 17 9 10 10 8 8 8 7 7 7 8 9 11 12 14 15 15 16 16 17 17 17 18 18
24 24 23 21 14 15 8 16 4 3 3 2 6 8 1 9 7 11 12 12 14 16 16 18 12 10 8 8 8 9 6 5 6 7 6 8 9 10 12 14 15 17 19 20 20 21 21 21 21
Wind_Direction
61 66 75 48 34 119 63 70 63 73 60 90 87 68 62 50 54 95 145 153 143 135 130 126 120 116 113 115 111 109 109 106 105 110 106 98 100 105 98 104 111 116 117 120 114 111 110 114 107
59 61 63 108 38 58 62 63 54 65 70 97 70 55 50 54 48 128 138 140 135 134 130 125 120 117 114 110 113 114 113 108 106 112 111 97 94 96 109 121 118 116 121 122 134 118 117 112 117
70 65 79 351 29 43 71 69 68 61 65 90 20 50 59 56 108 131 143 135 140 133 129 121 117 114 114 117 118 116 114 109 108 116 117 106 102 102 107 113 122 124 119 121 128 137 129 126 119
78 4 79 70 76 66 102 77 62 41 52 74 80 21 38 98 126 153 142 132 142 137 131 118 118 114 112 112 113 114 112 110 112 116 123 118 111 112 108 106 116 119 119 131 136 144 155 153 140
13 327 64 54 77 64 78 55 61 81 37 56 62 105 198 159 131 145 138 139 133 139 125 122 120 116 114 114 112 111 110 108 108 114 117 117 121 122 118 115 114 122 128 132 148 155 166 175 168
325 327 354 63 65 72 83 81 127 82 49 39 64 64 103 147 142 146 139 142 139 168 130 127 126 125 122 117 117 115 112 107 105 102 104 107 118 118 122 132 140 148 154 157 167 170 187 193 188
313 318 359 63 66 63 80 81 12 55 55 55 104 170 135 147 157 149 144 149 146 158 136 132 129 125 122 123 121 119 112 106 103 103 99 95 95 110 119 162 179 191 203 211 197 196 209 206 209
315 340 44 46 75 38 70 42 75 32 78 61 82 319 150 156 154 153 151 157 152 148 151 144 137 132 130 128 124 117 111 108 98 90 76 51 335 275 248 235 234 230 236 240 236 232 234 235 239
321 13 26 38 55 108 41 70 66 70 62 61 51 106 199 171 157 156 160 161 162 154 161 154 161 142 142 141 134 133 137 123 114 91 355 339 318 296 283 282 251 252 254 252 247 241 245 248 249
351 8 25 19 23 47 30 21 356 188 8 67 63 141 179 181 168 163 165 164 166 158 165 166 170 169 163 162 160 176 185 228 245 324 333 317 327 316 283 282 276 272 262 256 255 257 251 253 252
8 28 22 26 28 46 19 31 50 162 17 266 246 305 180 172 168 169 168 170 168 161 173 174 174 173 184 185 196 216 249 266 273 288 303 314 319 320 283 298 296 302 296 290 257 255 252 267 251
306 8 26 19 16 32 24 357 65 277 30 310 212 270 169 167 168 173 171 174 180 177 181 190 190 194 201 205 203 242 263 233 270 279 291 300 321 327 318 305 313 319 311 300 283 266 266 243 256
82 324 336 333 23 25 18 10 6 353 332 179 169 174 164 168 173 176 177 178 183 188 192 194 202 202 213 213 203 220 261 243 206 307 340 341 318 314 322 328 328 327 312 303 293 295 273 263 257
343 322 310 298 291 351 220 345 308 316 134 170 161 162 168 173 177 181 180 182 181 192 190 184 190 181 176 173 176 167 191 190 218 255 336 334 325 317 317 306 316 318 319 320 309 295 292 279 260
292 324 16 354 253 264 266 219 24 204 154 165 165 165 173 178 182 185 183 186 184 189 195 171 166 160 146 144 157 188 278 269 285 315 316 312 323 314 311 308 298 294 298 311 308 305 290 282 272
316 351 291 13 184 273 235 221 239 167 138 162 175 174 177 181 185 187 189 183 194 189 193 180 168 175 146 106 43 11 16 353 345 315 309 302 310 318 307 297 289 289 295 308 302 303 303 301 297
305 69 60 121 174 200 241 16 185 174 152 164 180 187 185 182 186 190 193 188 199 193 211 182 172 163 192 210 340 327 326 312 304 299 299 308 310 327 330 286 278 285 288 288 293 294 294 296 294
315 26 76 73 268 239 243 277 237 196 183 178 185 197 194 196 191 199 190 200 189 219 204 184 185 201 218 218 240 270 288 305 307 306 305 306 307 319 316 305 282 292 290 287 283 283 286 290 290
325 314 79 277 284 264 247 254 236 220 201 198 188 193 201 199 202 203 201 199 207 208 230 202 207 207 218 214 250 270 287 292 294 298 305 308 307 335 311 303 265 269 274 281 286 298 303 307 304
283 326 322 163 274 268 263 275 245 217 208 201 202 196 196 199 205 201 204 202 204 223 226 214 217 218 216 238 250 270 281 289 296 307 318 316 311 309 318 299 282 275 271 277 283 291 305 298 298
265 281 285 298 281 275 278 299 232 203 203 203 207 204 201 202 198 202 202 203 205 217 233 223 226 225 229 239 252 277 292 306 304 290 309 308 297 298 295 288 289 287 275 279 283 285 288 289 299
299 306 294 285 279 157 236 217 17 200 192 204 207 211 206 203 197 207 199 200 208 216 222 222 226 229 232 243 264 281 307 303 304 303 309 306 287 294 288 268 276 277 284 289 290 289 295 302 303
267 307 289 286 285 269 300 243 186 194 183 196 211 216 213 215 213 205 206 215 205 217 217 221 228 234 239 249 266 290 295 297 300 296 306 316 311 295 262 256 267 295 293 291 304 305 313 310 307
249 280 260 270 262 266 249 297 114 287 78 129 193 209 216 217 213 214 208 207 217 213 215 219 233 239 249 262 269 286 289 294 300 311 318 325 338 308 236 256 286 289 290 294 299 304 307 309 308
239 253 255 251 259 71 223 271 83 90 68 86 166 190 205 211 207 211 209 208 211 215 219 220 246 248 258 266 272 278 288 296 300 311 322 334 0 77 272 292 302 293 293 284 287 298 302 303 302
231 238 271 285 184 235 202 303 91 127 83 73 112 176 178 190 208 211 213 207 214 212 217 235 247 255 262 266 271 279 290 305 303 306 314 309 325 323 313 313 313 307 297 294 300 300 303 305 304
229 237 256 291 283 239 2 160 153 79 78 84 124 182 194 188 199 204 207 211 214 228 236 243 252 257 262 264 267 280 292 289 288 309 308 305 295 307 311 310 308 303 303 304 304 306 307 306 307
229 233 229 241 270 268 89 302 170 152 36 62 171 172 198 202 208 206 200 211 229 234 235 240 246 262 260 263 268 279 285 293 308 312 318 305 298 300 307 309 309 306 303 302 304 307 309 307 304
213 232 244 264 220 277 284 106 330 155 100 43 189 188 201 196 218 223 222 225 223 227 229 229 243 267 235 247 277 302 297 308 324 332 330 318 308 307 308 311 310 310 312 312 312 310 312 311 309
228 221 232 238 225 260 305 297 287 143 343 279 201 188 250 236 225 223 225 225 225 226 219 220 240 219 235 274 294 293 291 320 334 334 339 325 318 316 311 308 309 311 309 308 307 309 311 310 306
Height
3158 3156 3154 3157 3138 3157 3154 3158 3158 3159 3160 3162 3161 3162 3162 3160 3161 3167 3167 3168 3167 3169 3171 3173 3174 3175 3177 3178 3178 3179 3180 3180 3181 3181 3182 3183 3184 3184 3185 3185 3185 3186 3187 3189 3189 3189 3190 3191 3192
3158 3156 3156 3158 3159 3157 3159 3159 3160 3163 3163 3164 3164 3164 3164 3163 3163 3164 3166 3171 3170 3171 3173 3174 3176 3177 3178 3179 3180 3181 3181 3181 3182 3183 3184 3185 3185 3185 3186 3186 3187 3187 3189 3190 3191 3191 3192 3193 3194
3158 3156 3153 3157 3158 3160 3161 3161 3164 3165 3165 3166 3165 3164 3165 3165 3168 3168 3169 3173 3175 3173 3174 3176 3177 3178 3180 3181 3181 3182 3183 3183 3183 3185 3185 3186 3186 3188 3188 3188 3189 3190 3190 3191 3191 3193 3193 3194 3195
3158 3158 3153 3158 3159 3162 3163 3165 3166 3166 3167 3167 3167 3165 3165 3167 3169 3169 3170 3176 3178 3179 3177 3177 3179 3180 3181 3182 3183 3184 3184 3185 3186 3186 3187 3188 3188 3189 3189 3190 3190 3191 3192 3193 3193 3194 3195 3196 3196
3159 3151 3152 3157 3159 3165 3166 3166 3166 3165 3168 3168 3168 3166 3164 3166 3170 3169 3172 3179 3182 3184 3179 3179 3180 3181 3182 3183 3184 3185 3186 3187 3187 3188 3189 3188 3190 3190 3191 3191 3192 3192 3192 3193 3194 3194 3195 3196 3196
3163 3161 3157 3158 3163 3165 3167 3167 3161 3166 3168 3168 3169 3167 3164 3165 3170 3171 3176 3181 3185 3184 3180 3181 3182 3183 3184 3185 3186 3187 3188 3189 3189 3190 3190 3191 3192 3192 3192 3192 3193 3193 3193 3193 3194 3195 3195 3195 3196
3167 3163 3162 3163 3167 3169 3170 3169 3163 3167 3169 3170 3169 3169 3165 3166 3172 3173 3178 3181 3184 3182 3181 3182 3183 3184 3185 3186 3187 3188 3189 3190 3191 3191 3192 3192 3193 3193 3192 3193 3193 3193 3193 3194 3194 3194 3194 3195 3195
3168 3165 3160 3166 3167 3169 3174 3171 3170 3170 3171 3170 3171 3168 3167 3168 3172 3174 3179 3181 3183 3184 3182 3183 3184 3185 3186 3187 3188 3189 3190 3190 3191 3192 3192 3193 3193 3192 3192 3192 3192 3193 3193 3193 3193 3193 3193 3194 3194
3172 3166 3165 3169 3168 3171 3174 3170 3170 3171 3172 3172 3170 3172 3169 3170 3173 3177 3179 3181 3182 3184 3184 3185 3188 3186 3187 3188 3189 3189 3189 3190 3191 3191 3192 3192 3192 3191 3191 3191 3191 3191 3191 3192 3192 3192 3193 3193 3193
3173 3171 3171 3172 3172 3173 3173 3171 3171 3171 3172 3172 3170 3170 3169 3170 3173 3176 3179 3181 3181 3183 3185 3185 3190 3187 3187 3188 3189 3189 3189 3189 3190 3190 3190 3190 3190 3189 3189 3189 3189 3189 3189 3189 3190 3190 3191 3191 3191
3176 3175 3175 3174 3173 3173 3172 3170 3171 3170 3172 3171 3169 3169 3169 3171 3173 3177 3180 3182 3182 3184 3185 3186 3186 3188 3187 3188 3189 3188 3188 3188 3189 3189 3189 3189 3188 3187 3187 3187 3188 3187 3187 3186 3187 3188 3188 3188 3187
3173 3175 3175 3175 3174 3174 3173 3172 3172 3171 3172 3173 3169 3168 3168 3172 3175 3179 3181 3183 3184 3184 3185 3186 3186 3187 3187 3188 3188 3188 3188 3189 3187 3188 3188 3188 3187 3186 3187 3187 3186 3185 3185 3185 3185 3186 3185 3185 3185
3173 3175 3175 3174 3175 3175 3174 3174 3173 3173 3171 3172 3169 3168 3170 3173 3176 3180 3183 3184 3187 3185 3185 3187 3186 3186 3187 3187 3188 3187 3188 3187 3189 3188 3188 3188 3187 3186 3185 3185 3184 3184 3183 3183 3183 3182 3182 3182 3183
3173 3174 3175 3175 3175 3174 3174 3174 3171 3172 3171 3171 3170 3171 3172 3175 3177 3180 3182 3185 3187 3187 3187 3186 3186 3186 3187 3187 3187 3187 3187 3187 3187 3187 3187 3186 3186 3185 3184 3183 3182 3182 3181 3181 3180 3180 3179 3179 3180
3175 3174 3173 3174 3175 3174 3173 3173 3172 3171 3171 3171 3171 3172 3174 3176 3178 3180 3182 3184 3186 3187 3187 3186 3186 3186 3187 3187 3187 3187 3187 3187 3188 3186 3186 3185 3183 3182 3182 3181 3180 3180 3179 3178 3178 3178 3177 3177 3178
3173 3175 3170 3174 3174 3173 3172 3170 3171 3171 3171 3172 3173 3174 3174 3176 3178 3180 3181 3184 3186 3188 3186 3186 3186 3187 3187 3187 3187 3187 3186 3186 3186 3185 3183 3182 3181 3180 3179 3178 3178 3178 3177 3177 3176 3175 3175 3175 3174
3170 3170 3170 3172 3172 3173 3173 3170 3170 3171 3172 3173 3173 3174 3174 3176 3178 3178 3181 3183 3187 3186 3186 3186 3186 3187 3188 3187 3186 3186 3185 3185 3185 3184 3183 3182 3182 3179 3176 3175 3175 3175 3174 3174 3173 3173 3173 3172 3172
3171 3169 3171 3170 3172 3171 3171 3170 3169 3170 3171 3173 3173 3173 3174 3176 3178 3179 3182 3183 3186 3186 3186 3185 3186 3186 3186 3186 3185 3185 3184 3184 3183 3182 3182 3181 3182 3180 3176 3173 3174 3174 3173 3172 3171 3171 3170 3170 3170
3172 3169 3168 3170 3169 3169 3168 3167 3168 3167 3169 3171 3172 3173 3173 3175 3178 3180 3180 3183 3185 3187 3185 3185 3185 3185 3185 3185 3185 3184 3184 3184 3183 3182 3181 3179 3180 3176 3178 3174 3172 3172 3172 3171 3170 3168 3169 3168 3166
3169 3168 3170 3167 3167 3167 3167 3167 3166 3165 3165 3168 3170 3172 3174 3175 3176 3178 3179 3182 3184 3184 3183 3182 3183 3183 3183 3184 3184 3184 3184 3183 3181 3179 3178 3177 3175 3175 3173 3173 3173 3171 3170 3169 3169 3168 3168 3167 3165
3166 3167 3166 3164 3166 3167 3168 3163 3161 3162 3162 3164 3168 3170 3173 3175 3176 3176 3178 3180 3181 3181 3178 3180 3180 3181 3182 3183 3183 3183 3183 3182 3180 3177 3175 3173 3171 3170 3170 3170 3170 3170 3168 3167 3166 3165 3165 3164 3162
3165 3167 3165 3163 3163 3159 3160 3156 3145 3162 3159 3161 3164 3167 3170 3173 3174 3175 3176 3177 3179 3179 3178 3177 3178 3179 3180 3181 3182 3182 3182 3180 3177 3174 3170 3167 3165 3164 3165 3164 3166 3166 3166 3164 3164 3162 3162 3161 3160
3165 3166 3164 3161 3158 3152 3153 3154 3155 3159 3158 3157 3160 3164 3168 3170 3172 3174 3175 3176 3177 3178 3177 3176 3176 3177 3179 3180 3180 3181 3180 3178 3175 3171 3167 3163 3158 3155 3155 3161 3162 3164 3164 3163 3162 3161 3160 3158 3157
3168 3167 3162 3157 3152 3150 3160 3149 3157 3151 3156 3154 3156 3159 3163 3166 3169 3171 3174 3176 3176 3177 3176 3177 3176 3177 3178 3179 3179 3179 3177 3175 3172 3169 3166 3161 3155 3152 3154 3156 3160 3160 3160 3159 3159 3158 3156 3155 3153
3165 3164 3155 3151 3148 3156 3152 3149 3155 3152 3155 3153 3156 3158 3161 3163 3165 3168 3170 3172 3174 3175 3174 3175 3174 3176 3177 3178 3178 3176 3174 3173 3171 3169 3165 3161 3157 3156 3156 3156 3155 3155 3156 3156 3155 3153 3152 3151 3149
3160 3161 3150 3147 3143 3148 3148 3141 3150 3151 3153 3153 3155 3156 3157 3160 3163 3165 3167 3169 3169 3172 3173 3172 3173 3175 3176 3176 3175 3173 3172 3170 3169 3167 3163 3161 3159 3158 3157 3155 3154 3153 3154 3153 3152 3150 3149 3148 3147
3157 3156 3155 3147 3139 3137 3138 3142 3146 3150 3152 3152 3155 3156 3157 3158 3160 3160 3163 3164 3166 3167 3169 3171 3172 3173 3173 3172 3171 3171 3170 3168 3166 3164 3162 3159 3159 3158 3157 3156 3154 3153 3151 3150 3148 3147 3146 3145 3143
3153 3154 3154 3150 3144 3138 3144 3140 3137 3144 3149 3151 3155 3156 3156 3155 3156 3157 3160 3161 3162 3165 3167 3169 3170 3170 3169 3168 3169 3169 3167 3165 3163 3162 3160 3159 3158 3157 3156 3154 3153 3151 3150 3148 3146 3144 3142 3141 3139
3151 3151 3151 3146 3150 3136 3134 3146 3149 3144 3147 3151 3154 3155 3154 3154 3155 3156 3157 3158 3160 3162 3165 3166 3167 3167 3166 3167 3166 3165 3164 3163 3161 3160 3159 3159 3158 3156 3154 3152 3150 3149 3147 3144 3141 3140 3138 3136 3135
3147 3148 3149 3146 3145 3142 3140 3141 3141 3143 3146 3150 3152 3152 3151 3152 3154 3155 3155 3156 3157 3159 3161 3164 3166 3166 3165 3165 3164 3163 3162 3160 3159 3159 3158 3157 3155 3154 3152 3150 3148 3145 3143 3141 3139 3136 3135 3133 3131